{"data":{"norad_id":66031,"epoch":"2026-05-25T03:34:46.714656Z","epoch_age_seconds":55961,"freshness":"FRESH","line1":"1 66031U 25232AC  26145.14915179  .00021830  00000+0  65577-3 0  9991","line2":"2 66031  53.1596 108.6199 0000764 121.9216 238.1860 15.34379221 35148","mean_motion":15.34379221,"eccentricity":7.64e-5,"inclination_deg":53.1596,"raan_deg":108.6199,"arg_perigee_deg":121.9216,"mean_anomaly_deg":238.186,"bstar":0.00065577,"rev_number":3514,"period_min":93.849028994378,"perigee_km":462.24235555822,"apogee_km":463.28764538389,"semimajor_km":6840.9020004711,"source":"CELESTRAK","updated_at":"2026-05-25T13:38:21.019106Z"}}